Location: Hiram
(41.3130°N, 81.1440°W)
Time: 15:24:59
(UTC-04:00)

Daily predictions for brighter satellites

Satellite Brightness Start Highest point End
(mag) Time Altitude Azimuth Time Altitude Azimuth Time Altitude Azimuth
Timation 2 Rocket 3.9 21:10:45 10° SSW 21:16:42 82° ESE 21:22:48 10° NNE
Cosmos 1455 Rocket 4.2 21:16:24 10° NNE 21:20:07 26° ENE 21:23:49 10° SE
Cosmos 1743 2.7 21:16:39 10° N 21:20:28 62° E 21:24:13 10° SSE
H-2A R/B 3.3 21:18:02 10° ESE 21:21:55 24° ENE 21:25:53 10° NNE
Cosmos 2208 Rocket 4.4 21:17:18 10° SSW 21:22:27 70° WNW 21:27:38 10° NNE
Iridium 2 4.4 21:19:10 10° SSE 21:22:41 36° E 21:26:14 10° NNE
Cosmos 1378 Rocket 4.2 21:21:04 10° SSW 21:25:18 59° W 21:29:34 10° N
GPS 2-05 Rocket1 4.4 21:25:29 10° SSW 21:27:42 17° SSE 21:29:56 10° ESE
Cosmos 2333 Rocket 4.4 21:26:14 10° NNE 21:28:20 12° NE 21:30:26 10° ENE
SJ-11-01 4.4 21:24:33 10° SSE 21:29:16 87° WSW 21:34:03 10° NNW
COSMOS 2428 4.5 21:27:52 10° N 21:31:44 18° NE 21:35:36 10° E
Cosmos 1975 Rocket 3.0 21:27:30 10° S 21:31:48 75° E 21:36:07 10° NNE
Cosmos 2084 4.0 21:28:04 10° SW 21:32:21 64° NW 21:36:26 10° NNE
Okean 1 Rocket 4.1 21:30:22 10° NNW 21:34:32 47° W 21:38:40 10° SSW
Cosmos 1833 4.5 21:33:35 10° S 21:39:03 48° ESE 21:44:30 10° NE
ATLAS CENTAUR R/B 4.4 21:37:39 10° W 21:39:43 13° WSW 21:41:47 10° SW
Cosmos 1242 Rocket 2.8 21:38:40 10° NNW 21:42:18 68° W 21:45:51 10° S
ARGOS 3.6 21:37:40 10° SE 21:42:48 47° ENE 21:47:59 10° N
Meteor 2-4 Rocket 3.8 21:37:46 10° S 21:43:06 59° E 21:48:37 10° NNE
Cosmos 540 Rocket 4.0 21:40:53 10° SSE 21:45:35 37° ESE 21:50:19 10° NE
Cosmos 1544 Rocket 3.8 21:43:32 10° N 21:47:53 53° E 21:51:53 12° SSE
Cosmos 2150 Rocket 4.1 21:42:43 10° NNW 21:48:06 73° ENE 21:53:01 12° SSE
USA 186 4.3 21:45:43 10° SSW 21:48:21 22° W 21:51:04 10° NW
SPOT 5 4.4 21:47:09 11° ESE 21:50:05 20° ENE 21:53:23 10° NNE
NOAA 11 4.5 21:45:23 10° S 21:50:49 71° WSW 21:56:17 10° NNW
Cosmos 2322 Rocket 2.5 21:46:20 10° NNW 21:51:53 65° WSW 21:57:25 10° S
Shenzhou-11 Module 2.1 21:49:43 10° W 21:52:39 57° SSW 21:54:34 19° SE
Cosmos 2322 4.3 21:48:25 10° NNW 21:53:52 43° ENE 21:58:16 15° SE
Spot 2 Rocket 3.9 21:49:18 10° S 21:54:17 64° WSW 21:59:18 10° NNW
Lacrosse 5 rocket 1.8 21:50:01 10° NW 21:54:17 53° NE 21:57:27 16° ESE
Abrixas rocket 4.2 21:51:28 10° WNW 21:54:20 29° NNW 21:57:13 10° NE
Cosmos 2237 Rocket 4.5 21:53:45 10° NNE 21:55:11 11° NE 21:56:37 10° ENE
SJ 16-02 2.3 21:51:40 10° N 21:55:42 33° ENE 21:58:37 16° ESE
Cosmos 1937 Rocket 3.9 21:53:58 10° NNW 21:59:03 63° WSW 22:04:07 10° S
Cosmos 1763 Rocket 4.0 21:54:05 10° SSW 21:59:20 66° WNW 22:04:37 10° NNE
Tiangong 2 1.4 21:57:01 10° W 22:00:09 63° N 22:03:04 11° E
SL-16 R/B 3.0 21:57:18 10° NW 22:02:46 50° WSW 22:08:11 10° S
Cosmos 1536 Rocket 3.8 22:01:18 12° SSE 22:05:16 51° E 22:09:37 10° NNE
ISS -0.8 22:04:31 10° NW 22:06:35 15° N 22:08:39 10° NNE
Cosmos 841 Rocket 3.6 22:01:32 10° SSW 22:06:47 81° WNW 22:12:05 10° NNE
BREEZE M DEB (TANK) 3.2 21:56:06 10° WNW 22:06:50 80° SW 22:09:21 21° SE
Cosmos 292 Rocket 3.8 22:02:23 10° SSW 22:07:08 82° WNW 22:11:55 10° NNE
MetOp-B 4.2 22:02:55 15° SSE 22:07:21 66° ENE 22:12:40 10° N
Cosmos 2298 Rocket 4.4 22:04:27 10° NNW 22:09:43 65° WSW 22:14:31 12° S
Resurs 01 Rocket 3.6 22:11:13 10° SSW 22:14:52 25° W 22:18:32 10° NW
Cosmos 372 Rocket 4.4 22:09:57 10° N 22:14:56 49° ENE 22:18:02 22° SE
USA 234 3.2 22:08:30 10° NE 22:15:06 83° SE 22:21:41 10° SW
Cosmos 1340 Rocket 3.1 22:12:57 10° SSW 22:16:59 70° W 22:21:04 10° N
CZ-4C R/B 3.5 22:10:18 10° NNW 22:17:09 47° NE 22:23:08 17° ESE
USA 32 4.2 22:17:00 10° N 22:22:13 73° W 22:27:06 12° S
DELTA 2 R/B (1) 4.2 22:17:58 10° SSW 22:22:48 31° SSE 22:26:36 15° E
Cosmos 2219 4.0 22:20:18 21° SE 22:22:59 30° ESE 22:27:57 10° NE
Nadezhda 4 Rocket 4.3 22:17:33 10° N 22:23:44 52° ENE 22:27:44 22° SSE
Cosmos 2237 4.2 22:19:53 10° NNW 22:25:38 75° ENE 22:29:15 23° SSE
SL-08 RB Rocket 3.7 22:24:27 20° S 22:27:35 85° WSW 22:32:12 10° NNW
CSL-04 DEB 4.4 22:27:34 23° SSE 22:30:06 85° WSW 22:34:12 10° NNW
ERS-1 Rocket 2.9 22:27:39 22° SSE 22:30:56 82° ENE 22:35:58 10° NNW
CZ-2C R/B 4.3 22:33:08 10° NE 22:36:44 17° E 22:37:25 17° E
CENTAUR R/B 3.3 22:33:46 10° SW 22:39:39 54° NW 22:46:27 10° NNE
Cosmos 2360 Rocket 2.5 22:34:43 10° NNW 22:40:16 60° WSW 22:43:55 22° S
Cosmos 1025 Rocket 3.1 22:40:14 32° SSE 22:42:04 58° E 22:46:23 10° NNE
Cosmos 2219 Rocket 2.8 22:37:43 10° NNW 22:43:03 42° ENE 22:45:43 26° ESE
Meteor 1-15 Rocket 4.3 22:38:27 10° NNW 22:44:11 80° W 22:47:48 23° S
Iridium 90 4.1 22:44:44 50° NW 22:44:44 50° NW 22:46:31 10° N
Cosmos 2333 4.3 22:42:03 10° NNW 22:47:43 70° ENE 22:50:29 31° SE
CZ-2C R/B 4.1 22:50:58 26° ESE 22:53:10 36° ENE 22:58:15 10° N
Cosmos 1606 Rocket 4.4 22:51:10 10° N 22:55:16 35° ENE 22:56:10 32° ESE
Okean 2 3.5 22:53:27 27° SSW 22:55:38 76° W 22:59:49 10° N
Meteor 1-29 3.4 22:54:09 10° NNE 22:57:17 43° E 22:57:17 43° E
SPOT 1/Viking Rocket 3.5 22:55:11 33° SSE 22:57:37 88° ENE 23:02:47 10° NNW
Cosmos 783 Rocket 4.5 22:56:58 29° S 22:59:34 65° ESE 23:04:50 10° NNE
Cosmos 1125 Rocket 3.6 22:54:34 10° NNW 22:59:49 73° WSW 23:02:08 33° S
Cosmos 2034 Rocket 4.4 22:54:58 10° SSW 23:01:01 62° W 23:07:09 10° N
H-2A R/B 3.0 22:57:46 18° SSW 23:01:04 41° W 23:05:50 10° NNW
USA 245 4.2 23:00:38 29° SSW 23:02:10 46° W 23:06:31 10° NNW
Helios 1A 3.1 23:00:58 39° S 23:02:24 70° WSW 23:06:34 10° NNW
Landsat 7 3.7 23:02:12 41° SSE 23:03:53 82° ENE 23:08:40 10° N
Cosmos 1356 Rocket 3.7 23:07:09 29° SSW 23:09:11 66° W 23:13:29 10° N
Cosmos 2333 Rocket 2.3 23:08:02 10° NNW 23:13:45 66° ENE 23:15:46 40° SE
SL-16 R/B 4.2 23:10:11 10° N 23:13:55 18° NE 23:16:59 12° E
COSMOS 2455 3.5 23:14:03 34° ESE 23:14:29 34° ESE 23:19:52 10° NE
COSMOS 2428 2.7 23:10:56 10° NNW 23:16:37 75° WSW 23:18:42 40° S
Cosmos 2195 Rocket 4.5 23:12:20 10° N 23:18:29 69° E 23:20:46 40° SSE
YAOGAN 11 4.3 23:19:00 51° ESE 23:19:48 61° ENE 23:24:17 10° N
Spot 1 3.8 23:19:22 63° S 23:19:59 87° WSW 23:24:05 10° NNW
Cosmos 1627 Rocket 4.4 23:14:49 10° N 23:20:58 69° E 23:23:05 42° SSE
Terra 1.7 23:21:33 53° SSE 23:22:41 83° ENE 23:27:29 10° NNW
Cosmos 1980 4.2 23:17:41 10° NNW 23:23:10 47° ENE 23:24:56 35° ESE
Helios 1B rocket 2.8 23:19:04 10° N 23:23:10 62° WNW 23:24:33 38° SW
Cosmos 773 Rocket 4.4 23:23:50 42° ESE 23:24:02 42° ESE 23:28:52 10° NNE
Cosmos 1634 Rocket 3.9 23:23:14 35° S 23:26:10 85° E 23:32:32 10° N
SPOT 5 3.6 23:26:23 31° SW 23:27:50 41° W 23:32:11 10° NNW
Cosmos 2297 Rocket 2.7 23:29:00 39° ESE 23:29:15 40° ESE 23:34:29 10° NE
Nimbus 7 Rocket 4.3 23:24:39 10° NNE 23:30:33 76° ESE 23:32:43 41° S
Abrixas rocket 4.5 23:28:44 10° NW 23:31:24 23° N 23:32:55 16° NE
Cosmos 1892 Rocket 3.4 23:31:41 67° ESE 23:31:51 68° E 23:36:10 10° NNE
Cosmos 2227 Rocket 2.4 23:32:28 46° SE 23:33:02 48° ESE 23:38:27 10° NE
Lacrosse 5 rocket 3.2 23:30:03 10° WNW 23:33:07 20° WSW 23:33:08 20° WSW
SJ 16-02 3.2 23:30:40 10° NW 23:34:04 22° W 23:35:37 18° SW
IGS 5A 3.7 23:35:34 52° SW 23:36:05 56° W 23:40:11 10° NNW
Tiangong 2 3.0 23:33:47 10° W 23:35:15 25° W 23:35:15 25° W
Cosmos 2228 3.0 23:34:10 10° N 23:38:27 65° E 23:38:31 65° E
Cosmos 2237 Rocket 2.4 23:34:50 10° NNW 23:40:30 60° ENE 23:41:55 46° ESE
Cosmos 1953 3.9 23:40:39 10° NNE 23:43:28 24° ENE 23:43:28 24° ENE
ISS -0.8 23:42:02 10° NNW 23:44:04 15° N 23:46:05 10° NE
Iridium 4 Rocket 4.2 23:46:41 43° ESE 23:47:35 47° E 23:53:13 10° NNE
Cosmos 2082 3.9 23:48:08 48° ESE 23:48:22 48° ESE 23:53:51 10° NE
Okean 1-7 Rocket 4.5 23:48:20 35° WSW 23:49:41 46° WNW 23:54:05 10° N
Cosmos 1726 Rocket 3.6 23:45:47 10° NNW 23:50:11 70° W 23:50:28 67° SW
Cosmos 1544 4.4 23:48:12 10° NNW 23:51:32 32° W 23:51:33 32° W
